Year,Month,Day,Hour,Minute,Value (Times are PST for temperature in C)
2015,09,20,00,00,17.20
2015,09,20,00,01,17.20
2015,09,20,00,02,17.20
2015,09,20,00,03,17.20
2015,09,20,00,04,17.20
2015,09,20,00,05,17.20
2015,09,20,00,06,17.20
2015,09,20,00,07,17.20
2015,09,20,00,08,17.20
2015,09,20,00,09,17.20
2015,09,20,00,10,17.20
2015,09,20,00,11,17.20
2015,09,20,00,12,17.20
2015,09,20,00,13,17.20
2015,09,20,00,14,17.20
2015,09,20,00,15,17.20
2015,09,20,00,16,17.20
2015,09,20,00,17,17.20
2015,09,20,00,18,17.20
2015,09,20,00,19,17.10
2015,09,20,00,20,17.10
2015,09,20,00,21,17.10
2015,09,20,00,22,17.10
2015,09,20,00,23,17.10
2015,09,20,00,24,17.10
2015,09,20,00,25,17.10
2015,09,20,00,26,17.00
2015,09,20,00,27,17.00
2015,09,20,00,28,16.90
2015,09,20,00,29,16.90
2015,09,20,00,30,16.90
2015,09,20,00,31,16.80
2015,09,20,00,32,16.80
2015,09,20,00,33,16.80
2015,09,20,00,34,16.80
2015,09,20,00,35,16.80
2015,09,20,00,36,16.80
2015,09,20,00,37,16.80
2015,09,20,00,38,16.80
2015,09,20,00,39,16.80
2015,09,20,00,40,16.80
2015,09,20,00,41,16.80
2015,09,20,00,42,16.80
2015,09,20,00,43,16.80
2015,09,20,00,44,16.80
2015,09,20,00,45,16.80
2015,09,20,00,46,16.80
2015,09,20,00,47,16.80
2015,09,20,00,48,16.80
2015,09,20,00,49,16.80
2015,09,20,00,50,16.80
2015,09,20,00,51,16.80
2015,09,20,00,52,16.80
2015,09,20,00,53,16.80
2015,09,20,00,54,16.90
2015,09,20,00,55,16.90
2015,09,20,00,56,16.90
2015,09,20,00,57,16.90
2015,09,20,00,58,16.90
2015,09,20,00,59,16.80
2015,09,20,01,00,16.80
2015,09,20,01,01,16.80
2015,09,20,01,02,16.80
2015,09,20,01,03,16.80
2015,09,20,01,04,16.70
2015,09,20,01,05,16.70
2015,09,20,01,06,16.70
2015,09,20,01,07,16.70
2015,09,20,01,08,16.60
2015,09,20,01,09,16.60
2015,09,20,01,10,16.60
2015,09,20,01,11,16.60
2015,09,20,01,12,16.60
2015,09,20,01,13,16.50
2015,09,20,01,14,16.50
2015,09,20,01,15,16.50
2015,09,20,01,16,16.50
2015,09,20,01,17,16.50
2015,09,20,01,18,16.40
2015,09,20,01,19,16.40
2015,09,20,01,20,16.40
2015,09,20,01,21,16.40
2015,09,20,01,22,16.40
2015,09,20,01,23,16.30
2015,09,20,01,24,16.30
2015,09,20,01,25,16.30
2015,09,20,01,26,16.30
2015,09,20,01,27,16.30
2015,09,20,01,28,16.30
2015,09,20,01,29,16.30
2015,09,20,01,30,16.30
2015,09,20,01,31,16.30
2015,09,20,01,32,16.30
2015,09,20,01,33,16.30
2015,09,20,01,34,16.30
2015,09,20,01,35,16.30
2015,09,20,01,36,16.30
2015,09,20,01,37,16.30
2015,09,20,01,38,16.30
2015,09,20,01,39,16.30
2015,09,20,01,40,16.30
2015,09,20,01,41,16.30
2015,09,20,01,42,16.30
2015,09,20,01,43,16.30
2015,09,20,01,44,16.30
2015,09,20,01,45,16.30
2015,09,20,01,46,16.30
2015,09,20,01,47,16.30
2015,09,20,01,48,16.30
2015,09,20,01,49,16.30
2015,09,20,01,50,16.30
2015,09,20,01,51,16.30
2015,09,20,01,52,16.30
2015,09,20,01,53,16.30
2015,09,20,01,54,16.20
2015,09,20,01,55,16.20
2015,09,20,01,56,16.20
2015,09,20,01,57,16.20
2015,09,20,01,58,16.20
2015,09,20,01,59,16.20
2015,09,20,02,00,16.20
2015,09,20,02,01,16.20
2015,09,20,02,02,16.10
2015,09,20,02,03,16.10
2015,09,20,02,04,16.10
2015,09,20,02,05,16.10
2015,09,20,02,06,16.10
2015,09,20,02,07,16.10
2015,09,20,02,08,16.10
2015,09,20,02,09,16.00
2015,09,20,02,10,16.00
2015,09,20,02,11,16.00
2015,09,20,02,12,15.90
2015,09,20,02,13,15.90
2015,09,20,02,14,15.90
2015,09,20,02,15,15.90
2015,09,20,02,16,15.90
2015,09,20,02,17,15.90
2015,09,20,02,18,15.90
2015,09,20,02,19,15.90
2015,09,20,02,20,15.80
2015,09,20,02,21,15.80
2015,09,20,02,22,15.80
2015,09,20,02,23,15.80
2015,09,20,02,24,15.80
2015,09,20,02,25,15.80
2015,09,20,02,26,15.80
2015,09,20,02,27,15.80
2015,09,20,02,28,15.80
2015,09,20,02,29,15.80
2015,09,20,02,30,15.80
2015,09,20,02,31,15.80
2015,09,20,02,32,15.80
2015,09,20,02,33,15.90
2015,09,20,02,34,15.90
2015,09,20,02,35,16.00
2015,09,20,02,36,16.00
2015,09,20,02,37,16.00
2015,09,20,02,38,16.10
2015,09,20,02,39,16.10
2015,09,20,02,40,16.10
2015,09,20,02,41,16.10
2015,09,20,02,42,16.10
2015,09,20,02,43,16.10
2015,09,20,02,44,16.10
2015,09,20,02,45,16.10
2015,09,20,02,46,16.10
2015,09,20,02,47,16.10
2015,09,20,02,48,16.10
2015,09,20,02,49,16.10
2015,09,20,02,50,16.10
2015,09,20,02,51,16.10
2015,09,20,02,52,16.10
2015,09,20,02,53,16.10
2015,09,20,02,54,16.10
2015,09,20,02,55,16.10
2015,09,20,02,56,16.10
2015,09,20,02,57,16.10
2015,09,20,02,58,16.10
2015,09,20,02,59,16.10
2015,09,20,03,00,16.10
2015,09,20,03,01,16.10
2015,09,20,03,02,16.00
2015,09,20,03,03,16.00
2015,09,20,03,04,16.00
2015,09,20,03,05,16.00
2015,09,20,03,06,16.00
2015,09,20,03,07,16.00
2015,09,20,03,08,16.00
2015,09,20,03,09,16.00
2015,09,20,03,10,16.00
2015,09,20,03,11,16.00
2015,09,20,03,12,16.00
2015,09,20,03,13,16.00
2015,09,20,03,14,16.00
2015,09,20,03,15,16.00
2015,09,20,03,16,16.00
2015,09,20,03,17,16.00
2015,09,20,03,18,16.00
2015,09,20,03,19,16.10
2015,09,20,03,20,16.10
2015,09,20,03,21,16.10
2015,09,20,03,22,16.10
2015,09,20,03,23,16.10
2015,09,20,03,24,16.10
2015,09,20,03,25,16.10
2015,09,20,03,26,16.20
2015,09,20,03,27,16.20
2015,09,20,03,28,16.30
2015,09,20,03,29,16.30
2015,09,20,03,30,16.40
2015,09,20,03,31,16.50
2015,09,20,03,32,16.60
2015,09,20,03,33,16.60
2015,09,20,03,34,16.70
2015,09,20,03,35,16.80
2015,09,20,03,36,16.80
2015,09,20,03,37,16.90
2015,09,20,03,38,16.90
2015,09,20,03,39,16.90
2015,09,20,03,40,16.90
2015,09,20,03,41,16.90
2015,09,20,03,42,17.00
2015,09,20,03,43,17.00
2015,09,20,03,44,17.10
2015,09,20,03,45,17.10
2015,09,20,03,46,17.10
2015,09,20,03,47,17.10
2015,09,20,03,48,17.10
2015,09,20,03,49,17.10
2015,09,20,03,50,17.20
2015,09,20,03,51,17.20
2015,09,20,03,52,17.20
2015,09,20,03,53,17.30
2015,09,20,03,54,17.30
2015,09,20,03,55,17.30
2015,09,20,03,56,17.30
2015,09,20,03,57,17.30
2015,09,20,03,58,17.30
2015,09,20,03,59,17.30
2015,09,20,04,00,17.20
2015,09,20,04,01,17.20
2015,09,20,04,02,17.20
2015,09,20,04,03,17.20
2015,09,20,04,04,17.30
2015,09,20,04,05,17.30
2015,09,20,04,06,17.30
2015,09,20,04,07,17.30
2015,09,20,04,08,17.30
2015,09,20,04,09,17.40
2015,09,20,04,10,17.40
2015,09,20,04,11,17.30
2015,09,20,04,12,17.30
2015,09,20,04,13,17.30
2015,09,20,04,14,17.30
2015,09,20,04,15,17.30
2015,09,20,04,16,17.30
2015,09,20,04,17,17.30
2015,09,20,04,18,17.30
2015,09,20,04,19,17.30
2015,09,20,04,20,17.20
2015,09,20,04,21,17.10
2015,09,20,04,22,17.10
2015,09,20,04,23,17.00
2015,09,20,04,24,16.90
2015,09,20,04,25,16.90
2015,09,20,04,26,16.90
2015,09,20,04,27,16.90
2015,09,20,04,28,16.90
2015,09,20,04,29,16.90
2015,09,20,04,30,16.90
2015,09,20,04,31,16.90
2015,09,20,04,32,16.90
2015,09,20,04,33,16.90
2015,09,20,04,34,16.90
2015,09,20,04,35,17.00
2015,09,20,04,36,17.00
2015,09,20,04,37,17.00
2015,09,20,04,38,17.10
2015,09,20,04,39,17.10
2015,09,20,04,40,17.20
2015,09,20,04,41,17.20
2015,09,20,04,42,17.30
2015,09,20,04,43,17.30
2015,09,20,04,44,17.20
2015,09,20,04,45,17.20
2015,09,20,04,46,17.20
2015,09,20,04,47,17.20
2015,09,20,04,48,17.20
2015,09,20,04,49,17.20
2015,09,20,04,50,17.20
2015,09,20,04,51,17.20
2015,09,20,04,52,17.10
2015,09,20,04,53,17.10
2015,09,20,04,54,17.00
2015,09,20,04,55,17.00
2015,09,20,04,56,17.00
2015,09,20,04,57,17.00
2015,09,20,04,58,17.00
2015,09,20,04,59,17.10
2015,09,20,05,00,17.10
2015,09,20,05,01,17.20
2015,09,20,05,02,17.20
2015,09,20,05,03,17.20
2015,09,20,05,04,17.20
2015,09,20,05,05,17.20
2015,09,20,05,06,17.20
2015,09,20,05,07,17.20
2015,09,20,05,08,17.10
2015,09,20,05,09,17.10
2015,09,20,05,10,17.00
2015,09,20,05,11,17.00
2015,09,20,05,12,16.90
2015,09,20,05,13,17.00
2015,09,20,05,14,16.90
2015,09,20,05,15,16.90
2015,09,20,05,16,16.90
2015,09,20,05,17,16.80
2015,09,20,05,18,16.80
2015,09,20,05,19,16.80
2015,09,20,05,20,16.80
2015,09,20,05,21,16.80
2015,09,20,05,22,16.70
2015,09,20,05,23,16.70
2015,09,20,05,24,16.70
2015,09,20,05,25,16.70
2015,09,20,05,26,16.70
2015,09,20,05,27,16.70
2015,09,20,05,28,16.70
2015,09,20,05,29,16.70
2015,09,20,05,30,16.60
2015,09,20,05,31,16.60
2015,09,20,05,32,16.60
2015,09,20,05,33,16.60
2015,09,20,05,34,16.50
2015,09,20,05,35,16.50
2015,09,20,05,36,16.50
2015,09,20,05,37,16.50
2015,09,20,05,38,16.50
2015,09,20,05,39,16.50
2015,09,20,05,40,16.40
2015,09,20,05,41,16.40
2015,09,20,05,42,16.40
2015,09,20,05,43,16.40
2015,09,20,05,44,16.40
2015,09,20,05,45,16.40
2015,09,20,05,46,16.40
2015,09,20,05,47,16.40
2015,09,20,05,48,16.40
2015,09,20,05,49,16.40
2015,09,20,05,50,16.40
2015,09,20,05,51,16.40
2015,09,20,05,52,16.30
2015,09,20,05,53,16.30
2015,09,20,05,54,16.40
2015,09,20,05,55,16.40
2015,09,20,05,56,16.40
2015,09,20,05,57,16.40
2015,09,20,05,58,16.40
2015,09,20,05,59,16.40
2015,09,20,06,00,16.40
2015,09,20,06,01,16.40
2015,09,20,06,02,16.40
2015,09,20,06,03,16.40
2015,09,20,06,04,16.40
2015,09,20,06,05,16.40
2015,09,20,06,06,16.40
2015,09,20,06,07,16.40
2015,09,20,06,08,16.40
2015,09,20,06,09,16.40
2015,09,20,06,10,16.40
2015,09,20,06,11,16.40
2015,09,20,06,12,16.40
2015,09,20,06,13,16.40
2015,09,20,06,14,16.40
2015,09,20,06,15,16.40
2015,09,20,06,16,16.40
2015,09,20,06,17,16.40
2015,09,20,06,18,16.50
2015,09,20,06,19,16.50
2015,09,20,06,20,16.50
2015,09,20,06,21,16.50
2015,09,20,06,22,16.60
2015,09,20,06,23,16.60
2015,09,20,06,24,16.60
2015,09,20,06,25,16.70
2015,09,20,06,26,16.70
2015,09,20,06,27,16.60
2015,09,20,06,28,16.60
2015,09,20,06,29,16.60
2015,09,20,06,30,16.60
2015,09,20,06,31,16.70
2015,09,20,06,32,16.60
2015,09,20,06,33,16.60
2015,09,20,06,34,16.60
2015,09,20,06,35,16.60
2015,09,20,06,36,16.60
2015,09,20,06,37,16.60
2015,09,20,06,38,16.60
2015,09,20,06,39,16.60
2015,09,20,06,40,16.60
2015,09,20,06,41,16.60
2015,09,20,06,42,16.60
2015,09,20,06,43,16.60
2015,09,20,06,44,16.60
2015,09,20,06,45,16.60
2015,09,20,06,46,16.60
2015,09,20,06,47,16.60
2015,09,20,06,48,16.60
2015,09,20,06,49,16.60
2015,09,20,06,50,16.70
2015,09,20,06,51,16.70
2015,09,20,06,52,16.70
2015,09,20,06,53,16.70
2015,09,20,06,54,16.80
2015,09,20,06,55,16.80
2015,09,20,06,56,16.80
2015,09,20,06,57,16.80
2015,09,20,06,58,16.70
2015,09,20,06,59,16.70
2015,09,20,07,00,16.70
2015,09,20,07,01,16.70
2015,09,20,07,02,16.70
2015,09,20,07,03,16.70
2015,09,20,07,04,16.70
2015,09,20,07,05,16.80
2015,09,20,07,06,16.80
2015,09,20,07,07,16.90
2015,09,20,07,08,16.90
2015,09,20,07,09,16.90
2015,09,20,07,10,17.00
2015,09,20,07,11,17.10
2015,09,20,07,12,17.10
2015,09,20,07,13,17.20
2015,09,20,07,14,17.20
2015,09,20,07,15,17.20
2015,09,20,07,16,17.20
2015,09,20,07,17,17.20
2015,09,20,07,18,17.20
2015,09,20,07,19,17.20
2015,09,20,07,20,17.20
2015,09,20,07,21,17.20
2015,09,20,07,22,17.20
2015,09,20,07,23,17.20
2015,09,20,07,24,17.20
2015,09,20,07,25,17.10
2015,09,20,07,26,17.10
2015,09,20,07,27,17.10
2015,09,20,07,28,17.10
2015,09,20,07,29,17.10
2015,09,20,07,30,17.10
2015,09,20,07,31,17.20
2015,09,20,07,32,17.20
2015,09,20,07,33,17.20
2015,09,20,07,34,17.20
2015,09,20,07,35,17.20
2015,09,20,07,36,17.30
2015,09,20,07,37,17.30
2015,09,20,07,38,17.30
2015,09,20,07,39,17.30
2015,09,20,07,40,17.30
2015,09,20,07,41,17.30
2015,09,20,07,42,17.30
2015,09,20,07,43,17.30
2015,09,20,07,44,17.30
2015,09,20,07,45,17.30
2015,09,20,07,46,17.20
2015,09,20,07,47,17.20
2015,09,20,07,48,17.20
2015,09,20,07,49,17.20
2015,09,20,07,50,17.20
2015,09,20,07,51,17.10
2015,09,20,07,52,17.10
2015,09,20,07,53,17.10
2015,09,20,07,54,17.00
2015,09,20,07,55,17.00
2015,09,20,07,56,17.00
2015,09,20,07,57,16.90
2015,09,20,07,58,16.90
2015,09,20,07,59,16.90
2015,09,20,08,00,16.90
2015,09,20,08,01,16.80
2015,09,20,08,02,16.80
2015,09,20,08,03,16.80
2015,09,20,08,04,16.80
2015,09,20,08,05,16.80
2015,09,20,08,06,16.70
2015,09,20,08,07,16.70
2015,09,20,08,08,16.70
2015,09,20,08,09,16.70
2015,09,20,08,10,16.70
2015,09,20,08,11,16.70
2015,09,20,08,12,16.70
2015,09,20,08,13,16.70
2015,09,20,08,14,16.70
2015,09,20,08,15,16.70
2015,09,20,08,16,16.70
2015,09,20,08,17,16.70
2015,09,20,08,18,16.70
2015,09,20,08,19,16.70
2015,09,20,08,20,16.70
2015,09,20,08,21,16.70
2015,09,20,08,22,16.70
2015,09,20,08,23,16.80
2015,09,20,08,24,16.80
2015,09,20,08,25,16.80
2015,09,20,08,26,16.80
2015,09,20,08,27,16.80
2015,09,20,08,28,16.80
2015,09,20,08,29,16.80
2015,09,20,08,30,16.90
2015,09,20,08,31,16.90
2015,09,20,08,32,16.90
2015,09,20,08,33,16.90
2015,09,20,08,34,17.00
2015,09,20,08,35,17.00
2015,09,20,08,36,17.10
2015,09,20,08,37,17.10
2015,09,20,08,38,17.10
2015,09,20,08,39,17.10
2015,09,20,08,40,17.10
2015,09,20,08,41,17.20
2015,09,20,08,42,17.20
2015,09,20,08,43,17.20
2015,09,20,08,44,17.20
2015,09,20,08,45,17.20
2015,09,20,08,46,17.20
2015,09,20,08,47,17.20
2015,09,20,08,48,17.20
2015,09,20,08,49,17.20
2015,09,20,08,50,17.20
2015,09,20,08,51,17.20
2015,09,20,08,52,17.20
2015,09,20,08,53,17.20
2015,09,20,08,54,17.20
2015,09,20,08,55,17.20
2015,09,20,08,56,17.20
2015,09,20,08,57,17.30
2015,09,20,08,58,17.30
2015,09,20,08,59,17.20
2015,09,20,09,00,17.20
2015,09,20,09,01,17.20
2015,09,20,09,02,17.20
2015,09,20,09,03,17.30
2015,09,20,09,04,17.30
2015,09,20,09,05,17.30
2015,09,20,09,06,17.30
2015,09,20,09,07,17.30
2015,09,20,09,08,17.30
2015,09,20,09,09,17.30
2015,09,20,09,10,17.30
2015,09,20,09,11,17.30
2015,09,20,09,12,17.30
2015,09,20,09,13,17.40
2015,09,20,09,14,17.40
2015,09,20,09,15,17.40
2015,09,20,09,16,17.40
2015,09,20,09,17,17.40
2015,09,20,09,18,17.40
2015,09,20,09,19,17.40
2015,09,20,09,20,17.50
2015,09,20,09,21,17.50
2015,09,20,09,22,17.50
2015,09,20,09,23,17.60
2015,09,20,09,24,17.60
2015,09,20,09,25,17.60
2015,09,20,09,26,17.70
2015,09,20,09,27,17.70
2015,09,20,09,28,17.70
2015,09,20,09,29,17.80
2015,09,20,09,30,17.80
2015,09,20,09,31,17.80
2015,09,20,09,32,17.80
2015,09,20,09,33,17.80
2015,09,20,09,34,17.80
2015,09,20,09,35,17.90
2015,09,20,09,36,17.90
2015,09,20,09,37,17.90
2015,09,20,09,38,17.90
2015,09,20,09,39,17.90
2015,09,20,09,40,17.90
2015,09,20,09,41,17.90
2015,09,20,09,42,18.00
2015,09,20,09,43,18.00
2015,09,20,09,44,18.00
2015,09,20,09,45,18.00
2015,09,20,09,46,18.00
2015,09,20,09,47,18.00
2015,09,20,09,48,18.00
2015,09,20,09,49,18.00
2015,09,20,09,50,18.00
2015,09,20,09,51,18.00
2015,09,20,09,52,18.00
2015,09,20,09,53,18.00
2015,09,20,09,54,18.10
2015,09,20,09,55,18.10
2015,09,20,09,56,18.10
2015,09,20,09,57,18.10
2015,09,20,09,58,18.10
2015,09,20,09,59,18.20
2015,09,20,10,00,18.20
2015,09,20,10,01,18.30
2015,09,20,10,02,18.30
2015,09,20,10,03,18.30
2015,09,20,10,04,18.40
2015,09,20,10,05,18.40
2015,09,20,10,06,18.50
2015,09,20,10,07,18.50
2015,09,20,10,08,18.60
2015,09,20,10,09,18.60
2015,09,20,10,10,18.70
2015,09,20,10,11,18.70
2015,09,20,10,12,18.70
2015,09,20,10,13,18.70
2015,09,20,10,14,18.70
2015,09,20,10,15,18.70
2015,09,20,10,16,18.70
2015,09,20,10,17,18.80
2015,09,20,10,18,18.80
2015,09,20,10,19,18.90
2015,09,20,10,20,19.00
2015,09,20,10,21,19.00
2015,09,20,10,22,19.10
2015,09,20,10,23,19.10
2015,09,20,10,24,19.20
2015,09,20,10,25,19.20
2015,09,20,10,26,19.10
2015,09,20,10,27,19.00
2015,09,20,10,28,19.00
2015,09,20,10,29,18.90
2015,09,20,10,30,18.90
2015,09,20,10,31,18.90
2015,09,20,10,32,19.00
2015,09,20,10,33,19.10
2015,09,20,10,34,19.10
2015,09,20,10,35,19.20
2015,09,20,10,36,19.20
2015,09,20,10,37,19.20
2015,09,20,10,38,19.20
2015,09,20,10,39,19.20
2015,09,20,10,40,19.30
2015,09,20,10,41,19.30
2015,09,20,10,42,19.30
2015,09,20,10,43,19.40
2015,09,20,10,44,19.40
2015,09,20,10,45,19.40
2015,09,20,10,46,19.50
2015,09,20,10,47,19.50
2015,09,20,10,48,19.50
2015,09,20,10,49,19.60
2015,09,20,10,50,19.70
2015,09,20,10,51,19.70
2015,09,20,10,52,19.80
2015,09,20,10,53,19.90
2015,09,20,10,54,19.90
2015,09,20,10,55,20.00
2015,09,20,10,56,20.00
2015,09,20,10,57,20.10
2015,09,20,10,58,20.20
2015,09,20,10,59,20.30
2015,09,20,11,00,20.40
2015,09,20,11,01,20.50
2015,09,20,11,02,20.60
2015,09,20,11,03,20.70
2015,09,20,11,04,20.90
2015,09,20,11,05,21.10
2015,09,20,11,06,21.20
2015,09,20,11,07,21.20
2015,09,20,11,08,21.20
2015,09,20,11,09,21.30
2015,09,20,11,10,21.40
2015,09,20,11,11,21.50
2015,09,20,11,12,21.70
2015,09,20,11,13,21.90
2015,09,20,11,14,22.10
2015,09,20,11,15,22.30
2015,09,20,11,16,22.40
2015,09,20,11,17,22.50
2015,09,20,11,18,22.60
2015,09,20,11,19,22.60
2015,09,20,11,20,22.70
2015,09,20,11,21,22.70
2015,09,20,11,22,22.70
2015,09,20,11,23,22.70
2015,09,20,11,24,22.80
2015,09,20,11,25,22.80
2015,09,20,11,26,22.80
2015,09,20,11,27,22.80
2015,09,20,11,28,22.90
2015,09,20,11,29,22.90
2015,09,20,11,30,23.00
2015,09,20,11,31,23.00
2015,09,20,11,32,23.00
2015,09,20,11,33,23.10
2015,09,20,11,34,23.10
2015,09,20,11,35,23.00
2015,09,20,11,36,22.90
2015,09,20,11,37,22.90
2015,09,20,11,38,22.90
2015,09,20,11,39,22.80
2015,09,20,11,40,22.90
2015,09,20,11,41,22.80
2015,09,20,11,42,22.80
2015,09,20,11,43,22.80
2015,09,20,11,44,22.70
2015,09,20,11,45,22.70
2015,09,20,11,46,22.80
2015,09,20,11,47,22.80
2015,09,20,11,48,22.80
2015,09,20,11,49,22.90
2015,09,20,11,50,22.90
2015,09,20,11,51,23.00
2015,09,20,11,52,23.00
2015,09,20,11,53,23.10
2015,09,20,11,54,23.00
2015,09,20,11,55,23.00
2015,09,20,11,56,23.10
2015,09,20,11,57,23.20
2015,09,20,11,58,23.20
2015,09,20,11,59,23.10
2015,09,20,12,00,23.10
2015,09,20,12,01,23.10
2015,09,20,12,02,23.00
2015,09,20,12,03,23.00
2015,09,20,12,04,23.00
2015,09,20,12,05,23.10
2015,09,20,12,06,23.10
2015,09,20,12,07,23.10
2015,09,20,12,08,23.10
2015,09,20,12,09,23.10
2015,09,20,12,10,23.10
2015,09,20,12,11,23.10
2015,09,20,12,12,23.20
2015,09,20,12,13,23.20
2015,09,20,12,14,23.30
2015,09,20,12,15,23.30
2015,09,20,12,16,23.40
2015,09,20,12,17,23.60
2015,09,20,12,18,23.70
2015,09,20,12,19,23.60
2015,09,20,12,20,23.50
2015,09,20,12,21,23.40
2015,09,20,12,22,23.30
2015,09,20,12,23,23.30
2015,09,20,12,24,23.20
2015,09,20,12,25,23.20
2015,09,20,12,26,23.10
2015,09,20,12,27,23.10
2015,09,20,12,28,23.20
2015,09,20,12,29,23.40
2015,09,20,12,30,23.40
2015,09,20,12,31,23.40
2015,09,20,12,32,23.40
2015,09,20,12,33,23.40
2015,09,20,12,34,23.40
2015,09,20,12,35,23.40
2015,09,20,12,36,23.40
2015,09,20,12,37,23.50
2015,09,20,12,38,23.60
2015,09,20,12,39,23.60
2015,09,20,12,40,23.50
2015,09,20,12,41,23.40
2015,09,20,12,42,23.20
2015,09,20,12,43,23.00
2015,09,20,12,44,22.90
2015,09,20,12,45,23.00
2015,09,20,12,46,22.90
2015,09,20,12,47,22.80
2015,09,20,12,48,22.80
2015,09,20,12,49,22.80
2015,09,20,12,50,22.90
2015,09,20,12,51,22.90
2015,09,20,12,52,23.00
2015,09,20,12,53,23.10
2015,09,20,12,54,23.20
2015,09,20,12,55,23.20
2015,09,20,12,56,23.20
2015,09,20,12,57,23.20
2015,09,20,12,58,23.20
2015,09,20,12,59,23.20
2015,09,20,13,00,23.20
2015,09,20,13,01,23.30
2015,09,20,13,02,23.30
2015,09,20,13,03,23.40
2015,09,20,13,04,23.40
2015,09,20,13,05,23.30
2015,09,20,13,06,23.30
2015,09,20,13,07,23.30
2015,09,20,13,08,23.20
2015,09,20,13,09,23.20
2015,09,20,13,10,23.20
2015,09,20,13,11,23.20
2015,09,20,13,12,23.20
2015,09,20,13,13,23.20
2015,09,20,13,14,23.30
2015,09,20,13,15,23.50
2015,09,20,13,16,23.60
2015,09,20,13,17,23.60
2015,09,20,13,18,23.60
2015,09,20,13,19,23.60
2015,09,20,13,20,23.70
2015,09,20,13,21,23.60
2015,09,20,13,22,23.50
2015,09,20,13,23,23.50
2015,09,20,13,24,23.50
2015,09,20,13,25,23.60
2015,09,20,13,26,23.60
2015,09,20,13,27,23.60
2015,09,20,13,28,23.60
2015,09,20,13,29,23.60
2015,09,20,13,30,23.60
2015,09,20,13,31,23.70
2015,09,20,13,32,23.60
2015,09,20,13,33,23.40
2015,09,20,13,34,23.30
2015,09,20,13,35,23.10
2015,09,20,13,36,22.90
2015,09,20,13,37,22.60
2015,09,20,13,38,22.20
2015,09,20,13,39,21.90
2015,09,20,13,40,21.50
2015,09,20,13,41,21.20
2015,09,20,13,42,20.90
2015,09,20,13,43,20.70
2015,09,20,13,44,20.50
2015,09,20,13,45,20.30
2015,09,20,13,46,19.90
2015,09,20,13,47,19.70
2015,09,20,13,48,19.40
2015,09,20,13,49,19.10
2015,09,20,13,50,18.80
2015,09,20,13,51,18.50
2015,09,20,13,52,18.10
2015,09,20,13,53,17.80
2015,09,20,13,54,17.50
2015,09,20,13,55,17.30
2015,09,20,13,56,17.10
2015,09,20,13,57,16.90
2015,09,20,13,58,16.70
2015,09,20,13,59,16.60
2015,09,20,14,00,16.40
2015,09,20,14,01,16.30
2015,09,20,14,02,16.20
2015,09,20,14,03,16.10
2015,09,20,14,04,16.00
2015,09,20,14,05,16.00
2015,09,20,14,06,15.90
2015,09,20,14,07,15.80
2015,09,20,14,08,15.60
2015,09,20,14,09,15.40
2015,09,20,14,10,15.30
2015,09,20,14,11,15.20
2015,09,20,14,12,15.20
2015,09,20,14,13,15.20
2015,09,20,14,14,15.10
2015,09,20,14,15,15.00
2015,09,20,14,16,15.00
2015,09,20,14,17,15.00
2015,09,20,14,18,15.00
2015,09,20,14,19,15.00
2015,09,20,14,20,15.00
2015,09,20,14,21,15.00
2015,09,20,14,22,15.00
2015,09,20,14,23,15.00
2015,09,20,14,24,15.00
2015,09,20,14,25,15.00
2015,09,20,14,26,15.00
2015,09,20,14,27,15.00
2015,09,20,14,28,15.00
2015,09,20,14,29,15.00
2015,09,20,14,30,15.00
2015,09,20,14,31,15.00
2015,09,20,14,32,15.00
2015,09,20,14,33,14.90
2015,09,20,14,34,14.80
2015,09,20,14,35,14.80
2015,09,20,14,36,14.70
2015,09,20,14,37,14.70
2015,09,20,14,38,14.60
2015,09,20,14,39,14.60
2015,09,20,14,40,14.60
2015,09,20,14,41,14.50
2015,09,20,14,42,14.50
2015,09,20,14,43,14.40
2015,09,20,14,44,14.50
2015,09,20,14,45,14.50
2015,09,20,14,46,14.40
2015,09,20,14,47,14.40
2015,09,20,14,48,14.40
2015,09,20,14,49,14.40
2015,09,20,14,50,14.40
2015,09,20,14,51,14.40
2015,09,20,14,52,14.30
2015,09,20,14,53,14.30
2015,09,20,14,54,14.30
2015,09,20,14,55,14.20
2015,09,20,14,56,14.20
2015,09,20,14,57,14.10
2015,09,20,14,58,14.20
2015,09,20,14,59,14.20
2015,09,20,15,00,14.20
2015,09,20,15,01,14.20
2015,09,20,15,02,14.20
2015,09,20,15,03,14.20
2015,09,20,15,04,14.10
2015,09,20,15,05,14.10
2015,09,20,15,06,14.10
2015,09,20,15,07,14.10
2015,09,20,15,08,14.10
2015,09,20,15,09,14.00
2015,09,20,15,10,14.00
2015,09,20,15,11,13.90
2015,09,20,15,12,13.90
2015,09,20,15,13,13.90
2015,09,20,15,14,13.90
2015,09,20,15,15,13.90
2015,09,20,15,16,13.90
2015,09,20,15,17,13.90
2015,09,20,15,18,13.90
2015,09,20,15,19,13.90
2015,09,20,15,20,13.90
2015,09,20,15,21,13.80
2015,09,20,15,22,13.80
2015,09,20,15,23,13.80
2015,09,20,15,24,13.70
2015,09,20,15,25,13.70
2015,09,20,15,26,13.70
2015,09,20,15,27,13.60
2015,09,20,15,28,13.60
2015,09,20,15,29,13.60
2015,09,20,15,30,13.50
2015,09,20,15,31,13.40
2015,09,20,15,32,13.40
2015,09,20,15,33,13.30
2015,09,20,15,34,13.20
2015,09,20,15,35,13.20
2015,09,20,15,36,13.10
2015,09,20,15,37,13.10
2015,09,20,15,38,13.00
2015,09,20,15,39,13.00
2015,09,20,15,40,12.90
2015,09,20,15,41,12.90
2015,09,20,15,42,12.80
2015,09,20,15,43,12.80
2015,09,20,15,44,12.80
2015,09,20,15,45,12.80
2015,09,20,15,46,12.80
2015,09,20,15,47,12.80
2015,09,20,15,48,12.80
2015,09,20,15,49,12.80
2015,09,20,15,50,12.80
2015,09,20,15,51,12.90
2015,09,20,15,52,12.90
2015,09,20,15,53,12.90
2015,09,20,15,54,12.90
2015,09,20,15,55,13.00
2015,09,20,15,56,13.00
2015,09,20,15,57,13.00
2015,09,20,15,58,13.10
2015,09,20,15,59,13.10
2015,09,20,16,00,13.20
2015,09,20,16,01,13.30
2015,09,20,16,02,13.30
2015,09,20,16,03,13.50
2015,09,20,16,04,13.50
2015,09,20,16,05,13.60
2015,09,20,16,06,13.70
2015,09,20,16,07,13.80
2015,09,20,16,08,13.80
2015,09,20,16,09,13.90
2015,09,20,16,10,13.90
2015,09,20,16,11,13.90
2015,09,20,16,12,13.90
2015,09,20,16,13,13.90
2015,09,20,16,14,13.90
2015,09,20,16,15,13.90
2015,09,20,16,16,13.90
2015,09,20,16,17,13.90
2015,09,20,16,18,13.90
2015,09,20,16,19,13.90
2015,09,20,16,20,13.90
2015,09,20,16,21,13.90
2015,09,20,16,22,14.00
2015,09,20,16,23,14.00
2015,09,20,16,24,14.10
2015,09,20,16,25,14.10
2015,09,20,16,26,14.20
2015,09,20,16,27,14.20
2015,09,20,16,28,14.30
2015,09,20,16,29,14.40
2015,09,20,16,30,14.40
2015,09,20,16,31,14.50
2015,09,20,16,32,14.50
2015,09,20,16,33,14.60
2015,09,20,16,34,14.60
2015,09,20,16,35,14.60
2015,09,20,16,36,14.60
2015,09,20,16,37,14.70
2015,09,20,16,38,14.70
2015,09,20,16,39,14.70
2015,09,20,16,40,14.70
2015,09,20,16,41,14.70
2015,09,20,16,42,14.80
2015,09,20,16,43,14.80
2015,09,20,16,44,14.80
2015,09,20,16,45,14.80
2015,09,20,16,46,14.90
2015,09,20,16,47,15.00
2015,09,20,16,48,15.00
2015,09,20,16,49,15.00
2015,09,20,16,50,15.00
2015,09,20,16,51,15.00
2015,09,20,16,52,15.00
2015,09,20,16,53,15.00
2015,09,20,16,54,15.00
2015,09,20,16,55,15.00
2015,09,20,16,56,15.00
2015,09,20,16,57,15.00
2015,09,20,16,58,15.00
2015,09,20,16,59,15.00
2015,09,20,17,00,15.00
2015,09,20,17,01,15.00
2015,09,20,17,02,15.00
2015,09,20,17,03,15.00
2015,09,20,17,04,15.00
2015,09,20,17,05,15.00
2015,09,20,17,06,15.00
2015,09,20,17,07,15.00
2015,09,20,17,08,15.00
2015,09,20,17,09,14.90
2015,09,20,17,10,14.80
2015,09,20,17,11,14.80
2015,09,20,17,12,14.70
2015,09,20,17,13,14.70
2015,09,20,17,14,14.60
2015,09,20,17,15,14.60
2015,09,20,17,16,14.60
2015,09,20,17,17,14.60
2015,09,20,17,18,14.60
2015,09,20,17,19,14.60